Flag for Austria Weather past 2 weeks in Melk, Lower Austria, Austria

Now
81 °F

Pleasantly warm.


Feels Like: 80 °F
Forecast: 58 / 77 °F
Wind: 3 mph from East

Location: Amstetten

Current Time: Aug 1, 2015 at 2:40:25 PM

Latest Report: Aug 1, 2015 at 2:00 PM


Visibility: N/A

Pressure: 29.90 "Hg

Humidity: 32%

Dew point: 48 °F

Location of MelkLocation

Historic Weather in Melk — Graph

°F

Melk temperature yesterday

Maximum temperature yesterday: 78 °F (at 5:00 PM)
Minimum temperature yesterday: 58 °F (at 7:00 AM)
Average temperature yesterday: 68 °F

Past Weeks' High & Low Weather Summary

 TemperatureHumidityPressure
High97 °F (Jul 22, 4:00 PM)97% (Jul 21, 6:00 AM)30.08 "Hg (Jul 21, 6:00 AM)
Low55 °F (Jul 29, 7:00 AM)22% (Jul 17, 4:00 PM)29.67 "Hg (Jul 25, 4:00 AM)
Average73 °F63%29.90 "Hg
* Reported Jul 17 1:00 PM — Aug 1 1:00 PM, Melk, Weather by CustomWeather, © 2015

Note: Actual official high and low records may vary slightly from our data, if they occured in-between our weather recording intervals... More about our weather records

Advertising

Melk weather history for previous 24 hours

 ConditionsComfort  
Time TempWeatherWind HumidityBarometerVisibility
1:00 PM
Sat, Aug 1
79 °FPleasantly warm.5 mph35%29.91 "HgN/A
12:00 PM75 °FMild.5 mph40%29.93 "HgN/A
11:00 AM73 °FMild.5 mph44%29.93 "HgN/A
10:00 AM68 °FMild.6 mph51%29.94 "HgN/A
9:00 AM65 °FMild.6 mph56%29.95 "HgN/A
8:00 AM61 °FScattered clouds.3 mph62%29.96 "HgN/A
7:00 AM58 °FCool.2 mph69%29.96 "HgN/A
6:00 AM56 °FCool.2 mph73%29.96 "HgN/A
5:00 AM59 °FCool.3 mph66%29.97 "HgN/A
4:00 AM60 °FCool.2 mph64%29.97 "HgN/A
3:00 AM62 °FCool.3 mph60%29.96 "HgN/A
2:00 AM62 °FRefreshingly cool.2 mph59%29.96 "HgN/A
1:00 AM62 °FMild.2 mph57%29.98 "HgN/A
12:00 AM63 °FMild.2 mph54%29.98 "HgN/A
11:00 PM
Fri, Jul 31
65 °FMild.3 mph52%29.98 "HgN/A
10:00 PM67 °FMild.2 mph47%29.98 "HgN/A
9:00 PM70 °FMild.2 mph42%29.97 "HgN/A
8:00 PM74 °FMild.2 mph37%29.96 "HgN/A
7:00 PM76 °FMild.2 mph33%29.96 "HgN/A
6:00 PM77 °FPleasantly warm.1 mph27%29.97 "HgN/A
5:00 PM78 °FPleasantly warm.1 mph23%29.97 "HgN/A
4:00 PM77 °FPleasantly warm.1 mph24%29.99 "HgN/A
3:00 PM76 °FMild.No wind26%30.01 "HgN/A
2:00 PM76 °FMild.1 mph30%30.02 "HgN/A
Weather by CustomWeather, © 2015

See weather overviewHow to use our weather pages